Estación de Santa Rosa INIA

Ultimos registro cada 15 minutos 78
Estación Fecha / Hora Temperatura Humedad Lluvia Velocidad Dirección Radiación Presion
78 Santa Rosa INIA 04-05-2026 19:15 13,4 0,6 0 0 0 1 992
77 Santa Rosa INIA 04-05-2026 19:00 13,6 0,6 0 0 0 1 992
76 Santa Rosa INIA 04-05-2026 18:45 13,6 0,6 0 0 0 1 992
75 Santa Rosa INIA 04-05-2026 18:30 13,8 0,6 0 0 0 1 992
74 Santa Rosa INIA 04-05-2026 18:15 13,9 0,6 0 0 0 1 992
73 Santa Rosa INIA 04-05-2026 18:00 14 0,6 0 0 0 2 992
72 Santa Rosa INIA 04-05-2026 17:45 14,2 0,7 0 0 0 6 992
71 Santa Rosa INIA 04-05-2026 17:30 14,4 0,5 0 0 0 10 992
70 Santa Rosa INIA 04-05-2026 17:15 14,6 0,5 0 0 0 16 992
69 Santa Rosa INIA 04-05-2026 17:00 14,7 0,6 0 0 0 21 992
68 Santa Rosa INIA 04-05-2026 16:45 14,9 0,6 0 0 0 34 993
67 Santa Rosa INIA 04-05-2026 16:30 15 0,6 0 0 0 45 993
66 Santa Rosa INIA 04-05-2026 16:15 15,1 0,6 0 0 0 65 993
65 Santa Rosa INIA 04-05-2026 16:00 15,2 0,6 0 0 0 70 993
64 Santa Rosa INIA 04-05-2026 15:45 15,2 0,6 0 0 0 87 993
63 Santa Rosa INIA 04-05-2026 15:30 15,2 0,6 0 0 0 116 993
62 Santa Rosa INIA 04-05-2026 15:15 15,1 0,6 0 0 0 132 993
61 Santa Rosa INIA 04-05-2026 15:00 15 0,6 0 0 0 174 993
60 Santa Rosa INIA 04-05-2026 14:45 14,9 0,6 0 0 0 164 993
59 Santa Rosa INIA 04-05-2026 14:30 14,8 0,5 0 0 0 178 994
58 Santa Rosa INIA 04-05-2026 14:15 14,5 0,6 0 0 0 142 994
57 Santa Rosa INIA 04-05-2026 14:00 14,4 0,6 0 0 32 111 994
56 Santa Rosa INIA 04-05-2026 13:45 14,3 0,6 0 0 0 98 994
55 Santa Rosa INIA 04-05-2026 13:30 14,4 0,6 0 0 0 130 994
54 Santa Rosa INIA 04-05-2026 13:15 14,2 0,6 0 0 0 125 995
53 Santa Rosa INIA 04-05-2026 13:00 14,3 0,6 0 0 324 131 995
52 Santa Rosa INIA 04-05-2026 12:45 14,1 0,6 0 0,6 333 148 995
51 Santa Rosa INIA 04-05-2026 12:30 14 0,6 0 0 0 127 995
50 Santa Rosa INIA 04-05-2026 12:15 13,8 0,7 0 0,2 20 102 995
49 Santa Rosa INIA 04-05-2026 12:00 13,6 0,6 0 0,7 34 110 995
48 Santa Rosa INIA 04-05-2026 11:45 13,5 0,6 0 1,1 69 109 995
47 Santa Rosa INIA 04-05-2026 11:30 13,5 0,6 0 0,6 67 96 995
46 Santa Rosa INIA 04-05-2026 11:15 13,4 0,6 0 0,1 31 85 995
45 Santa Rosa INIA 04-05-2026 11:00 13,3 0,6 0 0,1 15 60 995
44 Santa Rosa INIA 04-05-2026 10:45 13,3 0,6 0 0 0 66 995
43 Santa Rosa INIA 04-05-2026 10:30 13,1 0,5 0 0 0 83 995
42 Santa Rosa INIA 04-05-2026 10:15 12,8 0,6 0 0 0 66 995
41 Santa Rosa INIA 04-05-2026 10:00 12,7 0,6 0 0,2 42 48 995
40 Santa Rosa INIA 04-05-2026 09:45 12,6 0,6 0 0,2 50 51 995
39 Santa Rosa INIA 04-05-2026 09:30 12,6 0,6 0 0 0 53 995
38 Santa Rosa INIA 04-05-2026 09:15 12,5 0,6 0 0 0 70 994
37 Santa Rosa INIA 04-05-2026 09:00 12,3 0,6 0 0 0 56 994
36 Santa Rosa INIA 04-05-2026 08:45 12,2 0,4 0 0,1 76 37 994
35 Santa Rosa INIA 04-05-2026 08:30 12 0,5 0 0,4 78 24 994
34 Santa Rosa INIA 04-05-2026 08:15 11,9 0,5 0 0 0 23 994
33 Santa Rosa INIA 04-05-2026 08:00 11,8 0,6 0 0 0 9 993
32 Santa Rosa INIA 04-05-2026 07:45 11,7 0,5 0 0 0 2 993
31 Santa Rosa INIA 04-05-2026 07:30 11,7 0,5 0 0 0 0 994
30 Santa Rosa INIA 04-05-2026 07:15 11,8 0,5 0 0 0 0 994
29 Santa Rosa INIA 04-05-2026 07:00 11,8 0,5 0 0 0 1 994
28 Santa Rosa INIA 04-05-2026 06:45 11,8 0,5 0 0 0 0 993
27 Santa Rosa INIA 04-05-2026 06:30 11,9 0,5 0 0 0 0 994
26 Santa Rosa INIA 04-05-2026 06:15 11,9 0,5 0 0 0 0 993
25 Santa Rosa INIA 04-05-2026 06:00 11,9 0,6 0 0 0 1 993
24 Santa Rosa INIA 04-05-2026 05:45 12 0,5 0 0 0 0 993
23 Santa Rosa INIA 04-05-2026 05:30 12 0,4 0 0 0 0 993
22 Santa Rosa INIA 04-05-2026 05:15 12,1 0,6 0 0 0 0 993
21 Santa Rosa INIA 04-05-2026 05:00 12,2 0,6 0 0 0 1 993
20 Santa Rosa INIA 04-05-2026 04:45 12,1 0,5 0 0 0 0 993
19 Santa Rosa INIA 04-05-2026 04:30 12,1 0,5 0 0 0 0 993
18 Santa Rosa INIA 04-05-2026 04:15 12 0,5 0 0 0 0 993
17 Santa Rosa INIA 04-05-2026 04:00 12,1 0,6 0 0 0 1 993
16 Santa Rosa INIA 04-05-2026 03:45 12,1 0,5 0 0 0 0 994
15 Santa Rosa INIA 04-05-2026 03:30 12,1 0,5 0 0 0 0 994
14 Santa Rosa INIA 04-05-2026 03:15 12,1 0,5 0 0 0 0 994
13 Santa Rosa INIA 04-05-2026 03:00 12,1 0,6 0 0 0 1 994
12 Santa Rosa INIA 04-05-2026 02:45 12 0,5 0 0 0 0 994
11 Santa Rosa INIA 04-05-2026 02:30 12 0,5 0 0 0 0 994
10 Santa Rosa INIA 04-05-2026 02:15 12,2 0,5 0 0 0 0 994
9 Santa Rosa INIA 04-05-2026 02:00 12,4 0,6 0 0 0 1 994
8 Santa Rosa INIA 04-05-2026 01:45 12,5 0,5 0 0 0 0 994
7 Santa Rosa INIA 04-05-2026 01:30 12,5 0,5 0 0 0 0 995
6 Santa Rosa INIA 04-05-2026 01:15 12,6 0,5 0 0 0 0 995
5 Santa Rosa INIA 04-05-2026 01:00 12,5 0,6 0 0,1 49 1 995
4 Santa Rosa INIA 04-05-2026 00:45 12,4 0,5 0 0,6 38 0 995
3 Santa Rosa INIA 04-05-2026 00:30 12,3 0,5 0 2 55 0 995
2 Santa Rosa INIA 04-05-2026 00:15 12,2 0,5 0 2,9 66 0 995
1 Santa Rosa INIA 04-05-2026 00:00 12,1 0,6 0 2,6 58 1 995